Location: Hookston
(37.9413°N, 122.0527°W)
Time: 21:22:22
(UTC+00:00)

Meteor 2-16 Rocket - Visible Passes

Search period start: 19 May 2025 00:00
Search period end: 29 May 2025 00:00
Orbit: 940 x 957 km, 82.6° (Epoch: 19 May)

Date Brightness Start Highest point End Pass type
(mag) Time Alt. Az. Time Alt. Az. Time Alt. Az.
19 May 4.3 09:35:38 80° SSE 09:35:58 85° E 09:42:05 10° N visible
19 May 6.3 11:19:44 11° W 11:21:35 13° WNW 11:24:07 10° NW visible
20 May 6.3 08:08:50 17° E 08:09:06 17° E 08:12:53 10° NE visible
20 May 4.5 09:52:55 59° W 09:53:19 61° W 09:59:21 10° N visible
21 May 5.7 08:26:06 28° E 08:26:09 28° E 08:31:13 10° NNE visible
21 May 5.1 10:10:12 37° W 10:10:46 38° WNW 10:16:24 10° N visible
22 May 5.0 08:43:22 46° E 08:43:22 46° E 08:49:03 10° NNE visible
22 May 5.7 10:27:27 23° W 10:28:19 24° WNW 10:33:08 10° NNW visible
23 May 4.4 09:00:37 74° E 09:00:37 74° E 09:06:36 10° N visible
23 May 6.2 10:44:42 14° W 10:46:00 15° WNW 10:49:16 10° NW visible
24 May 6.4 07:33:46 15° E 07:33:46 15° E 07:36:56 10° NE visible
24 May 4.4 09:17:51 70° W 09:17:51 70° W 09:23:56 10° N visible
25 May 5.9 07:50:59 24° E 07:50:59 24° E 07:55:30 10° NE visible
25 May 5.0 09:35:04 43° W 09:35:15 43° WNW 09:41:02 10° N visible
26 May 5.3 08:08:12 39° E 08:08:12 39° E 08:13:27 10° NNE visible
26 May 5.6 09:52:17 27° W 09:52:47 27° WNW 09:57:53 10° NNW visible
27 May 4.6 08:25:24 63° ENE 08:25:24 63° ENE 08:31:05 10° NNE visible
27 May 6.2 10:09:29 16° W 10:10:25 17° WNW 10:14:15 10° NNW visible
28 May 6.5 06:58:30 13° E 06:58:30 13° E 07:00:48 10° ENE visible
28 May 4.4 08:42:35 78° NW 08:42:35 78° NW 08:48:28 10° N visible
